Preview of NWS' New Version of Forecast
This preview is not operational and should not be used for support decisions.

Regional Weather Roundup (RWR)

Issued by National Weather Service (NWS)

                            
000
ASUS45 KBOU 171210
RWRCO 

WEATHER ROUNDUP FOR COLORADO
NATIONAL WEATHER SERVICE DENVER/BOULDER CO
600 AM MDT WED JUL 17 2019

NOTE: "FAIR" INDICATES FEW OR NO CLOUDS BELOW 12000 FEET WITH NO
SIGNIFICANT WEATHER AND/OR OBSTRUCTIONS TO VISIBILITY.

COZ001>005-013-030-031-171300-
...NORTHWEST COLORADO...
  
CITY           SKY/WX    TMP DP  RH WIND       PRES   REMARKS
CRAIG          FAIR      49  44  83 CALM      30.09R                  
HAYDEN         FAIR      59  44  57 E10       30.12R                  
MEEKER         FAIR      51  40  65 NE5       30.11R                  
RANGELY        FAIR      58  38  47 E6        30.01R                  
RABBIT EARS PA NOT AVBL                                               
STEAMBOAT SPGS FAIR      47  44  88 NW3       30.14R                  
WALDEN         NOT AVBL                                               
$$

COZ006>008-011-171300-
...WEST CENTRAL VALLEYS...
  
CITY           SKY/WX    TMP DP  RH WIND       PRES   REMARKS
GRAND JUNCTION FAIR      76  43  30 E9        29.99R                  
MONTROSE       FAIR      72  46  39 E13       30.11R                  
EAGLE          FAIR      56  46  69 SE6       30.18R                  
RIFLE          FAIR      59  45  59 CALM      30.07R                  
DELTA          FAIR      73  43  34 NE8       30.06R                  
NUCLA          FAIR      77  39  25 SW5       30.16R                  
$$

COZ017>023-064>068-171300-
...SOUTHWEST COLORADO...
  
CITY           SKY/WX    TMP DP  RH WIND       PRES   REMARKS
DURANGO        FAIR      57  49  74 CALM      30.24S                  
CORTEZ         FAIR      63  47  55 E3        30.15R                  
PAGOSA SPRINGS FAIR      52  51  99 CALM      30.33S                  
TELLURIDE      FAIR      63  41  45 CALM      30.41R                  
WOLF CREEK PAS FAIR      45  41  87 SW15      30.65S                  
$$

COZ009-010-012-014-032>034-037-058>063-171300-
...CENTRAL COLORADO...
  
CITY           SKY/WX    TMP DP  RH WIND       PRES   REMARKS
ASPEN          FAIR      63  42  46 SE13      30.24F                  
BUENA VISTA    FAIR      53  44  73 CALM      30.30S                  
COPPER MTN     FAIR      54  36  50 S14G31    30.59R                  
BERTHOUD PASS  FAIR      46  34  61 MISG      30.58S                  
COTTONWOOD PAS NOT AVBL                                               
GUNNISON       FAIR      54  47  77 N6        30.31R                  
GRANBY         NOT AVBL                                               
KREMMLING      FAIR      46  43  87 CALM      30.23R                  
LEADVILLE      FAIR      43  37  79 NE5       30.44R                  
SALIDA         FAIR      65  46  49 W7        30.34S                  
SUNLIGHT       FAIR      50  36  57 SW16G25   30.48R                  
WILKERSON PASS FAIR      48  37  66 SW17G23   30.53S                  
$$

COZ069>075-171300-
...SAN LUIS VALLEY/SANGRE DE CRISTO MOUNTAINS...
  
CITY           SKY/WX    TMP DP  RH WIND       PRES   REMARKS
ALAMOSA        FAIR      52  48  86 W6        30.29R                  
DEL NORTE      FAIR      52  47  82 W3        30.34R                  
LA VETA PASS   NOT AVBL                                               
SAGUACHE       FAIR      52  50  93 CALM      30.33S                  
$$

COZ035-036-038>040-171300-
...NORTHERN COLORADO FRONT RANGE...
  
CITY           SKY/WX    TMP DP  RH WIND       PRES   REMARKS
DENVER INTL AP FAIR      73  45  36 SW16      29.97R                  
AURORA         MOCLDY    71  46  41 S16       30.01R                  
FRONT RANGE AP FAIR      76  45  32 SW14      29.99S                  
ERIE MUNI ARPT FAIR      61  54  77 CALM      30.01R                  
BOULDER MUN AP FAIR      64  46  52 N6        29.97R                  
CENTENNIAL     MOCLDY    76  44  32 SW17G26   30.03R                  
BROOMFIELD     FAIR      73  41  31 SW5       30.00R                  
FORT COLLINS   FAIR      60  52  74 NW7       29.96R                  
LONGMONT       FAIR      60  51  72 SW5       29.97S                  
$$

COZ041-046-047-076>085-087-088-171300-
...PIKES PEAK/PALMER DIVIDE AND SOUTHERN FOOTHILLS...
  
CITY           SKY/WX    TMP DP  RH WIND       PRES   REMARKS
COLO. SPRINGS  MOCLDY    68  47  46 N7        30.06F                  
A. F. ACADEMY  FAIR      69  44  39 N7        30.08F                  
SCHRIEVER AFB  NOT AVBL                                               
CHEYENNE MTN   NOT AVBL                                               
ELLICOTT         N/A    N/A N/A N/A N3        30.05F                  
FALCON           N/A    N/A N/A N/A MISG        N/A                   
FORT CARSON    CLOUDY    66  51  59 NW6       30.02F                  
LIMON          FAIR      57  53  86 N5        29.99F                  
MONUMENT HILL  FAIR      64  43  45 SW12G18   30.16S                  
CANON CITY     NOT AVBL                                               
WALSENBURG     NOT AVBL                                               
TRINIDAD       FAIR      63  46  54 NW5       30.07S                  
$$

COZ042>045-048>051-090-091-171300-
...NORTHEAST COLORADO...
  
CITY           SKY/WX    TMP DP  RH WIND       PRES   REMARKS
GREELEY ARPT   FAIR      58  54  86 NW7       29.93R                  
AKRON          FAIR      72  52  49 SW17      29.90S                  
BURLINGTON     FAIR      74  55  51 SW12      29.89S                  
WRAY           FAIR      63  59  88 MISG      29.85S                  
YUMA           FAIR      64  48  55 SW7       29.86S                  
STERLING       FAIR      64  55  72 CALM      29.86R                  
HOLYOKE        FAIR      64  61  88 SW6       29.84S                  
FORT MORGAN    NOT AVBL                                               
$$

COZ086-089-092>099-171300-
...SOUTHEAST COLORADO...
  
CITY           SKY/WX    TMP DP  RH WIND       PRES   REMARKS
PUEBLO         FAIR      68  56  65 S3        29.95F                  
LA JUNTA       FAIR      67  57  70 SW8       29.95R                  
LAMAR          FAIR      71  53  52 W7        29.89R                  
SPRINGFIELD      N/A     69  56  62 SW12      29.98R                  
$$